Location: La Brionne
(46.1728°N, 1.7849°E)
Time: 07:55:21
(UTC+00:00)

SAR-Lupe-2 - Pass Details

Date: 16 June 2021
Orbit: 482 x 484 km, 98.1° (Epoch: 20 July)

Event Time Altitude Azimuth Distance (km) Brightness Sun altitude
Rises 23:09:17 0° 21° (NNE) 2,561 8.2 -19.7°
Reaches altitude 10° 23:11:28 10° 29° (NNE) 1,675 7.0 -19.8°
Enters shadow 23:14:50 38° 99° (E) 757 4.3 -19.9°
